Location: Canazei
(46.4667°N, 11.7667°E)
Time: 05:01:30
(UTC+00:00)

Okean 3 - Pass Details

Date: 21 April 2021
Orbit: 575 x 601 km, 82.5° (Epoch: 10 May)

Event Time Altitude Azimuth Distance (km) Brightness Sun altitude
Exits shadow 01:59:33 47° 180° (S) 799 3.8 -20.6°
Maximum altitude 02:00:44 84° 99° (E) 612 3.4 -20.5°
Drops below altitude 10° 02:05:04 10° 10° (N) 1,953 6.9 -19.9°
Sets 02:07:17 0° 10° (N) 2,858 7.9 -19.6°
